Rbgn^[z[y[W
メイン
   新天体発見情報
     Comet C/2026 L2 (PANSTARRS)
投稿するにはまず登録を

フラット表示 前のトピック | 次のトピック
投稿者 スレッド
佐藤裕久
投稿日時: 2026-6-19 23:33
モデレータ
登録日: 2005-6-12
居住地: 日本
投稿: 2697
オンライン
Comet C/2026 L2 (PANSTARRS)

R. Weryk (西オンタリオ大学,物理および天文学科)の通報によると、6月12日、Haleakalaにある
Pan-STARRS1の1.8-m Ritchey-Chretien反射望遠鏡で得た画像から彗星を発見した。
1".2-1".3のシーイングの条件下で得た8枚のスタックした45-秒露出w-バンドサーベイの画像では、
拡散した2".1(半値全幅:FWHM)のコマが見え、p.a. 210°に12"-のまっすぐな尾がある。
Werykは、数夜にわたってこの彗星の発見前の画像を同定した。 5月14.5日UT、1".4のシーイング
の条件下、HaleakalaのPan-STARRS2 1.8-m Ritchey-Chretien 反射望遠鏡を得た3枚のスタックし
た45-秒露出w-バンドサーベイ画像では、拡散した1".9 (FWHM)の頭部とp.a.220°に10"の尾がある。
5月21.6日、2枚のスタックした45-秒露出のPan-STARRS1 w-バンドサーベイ画像では、拡散した
2".8 (FWHM)の頭部とp.a.210°に4"の尾がある。6月9.52日-9.56日、良好な観測条件(2".4-2".6の
シーイング)で得た、3枚のスタックした45-秒露出のPan-STARRS1 w-バンドサーベイ画像では、p.a. 
220°に4"の尾が見られた。WerykとR. Wainscoatが、6月13.5日、1".0のシーイングの下、Maunakea
の3.6-m Canada-France-Hawaii 望遠鏡で得た、3枚のスタックした60-秒gri-バンドフォローアップ
画像から、集光した1".6 (FWHM)の頭部が見え、p.a. 195-215°にわたって18"の広い尾があった。

彗星機能の報告は次のとおり、

OC   Date        Reporter            Coma    Tail   PA   Comet     Date
                                                        (T/P)   Reported
F52  2026-05-14  R. Weryk            0".5     10"  220    T   2026-06-13.60
F51  2026-05-21  R. Weryk            1"        4"  210    T   2026-06-13.60
F51  2026-06-09  R. Weryk                      4"  220    T   2026-06-13.60
F51  2026-06-12  R. Weryk            0".9     12"  210    T   2026-06-12.67
T14  2026-06-13  R. Weryk            0".6     18"  195    T   2026-06-13.55

発見位置は次のとおり、(PCCP P12nn8G)

     2026 UT             R.A. (2000) Decl.       Mag.
     June 12.56143   20 08 38.85   - 4 42 30.9   20.8
          12.56208   20 08 38.82   - 4 42 30.5   20.4
          12.57004   20 08 38.50   - 4 42 23.4   20.7
          12.57069   20 08 38.48   - 4 42 22.4   20.4
          12.57845   20 08 38.15   - 4 42 15.7   20.4
          12.57911   20 08 38.13   - 4 42 15.2   20.5
          12.58751   20 08 37.77   - 4 42 07.5   20.4 

MPCの楕円軌道要素、位置推算表は次のとおり、

Orbital elements:
    C/2026 L2 (PANSTARRS)                                                       
Epoch 2026 June 9.0 TT = JDT 2461200.5                                          
T 2026 Apr. 10.06057 TT                                 Pike                    
q   3.3995089            (2000.0)            P               Q                  
z  +0.0002445      Peri.    0.05238     +0.23684589     +0.54943137             
 +/-0.0005104      Node   283.67083     -0.89167677     -0.20454248             
e   0.9991688      Incl.   55.55093     -0.38576751     +0.81011576             
From 21 observations 2026 May 14-June 14, mean residual 0".4.                   
                                                                                
Ephemeris:
Date    TT    R. A. (2000) Decl.     Delta      r    Elong.  Phase   m1
2026 05 16    20 19 39.5 -11 40 10   2.9331  3.4160   110.2    16.1  21.0
...
2026 05 31    20 15 36.5 -07 53 55   2.7602  3.4325   124.1    14.2  20.9
...
2026 06 08    20 11 32.1 -05 51 47   2.6855  3.4435   131.6    12.7  20.8
...
2026 06 14    20 07 39.5 -04 20 48   2.6392  3.4529   137.1    11.6  20.8
2026 06 15    20 06 56.9 -04 05 46   2.6324  3.4545   138.0    11.4  20.8
2026 06 16    20 06 13.2 -03 50 46   2.6258  3.4562   138.9    11.1  20.8
...
2026 06 22    20 01 31.0 -02 22 04   2.5923  3.4666   144.0     9.9  20.8
...
2026 06 30    19 54 29.1 -00 28 28   2.5638  3.4819   150.1     8.4  20.8
...
2026 07 15    19 39 56.5 +02 42 22   2.5634  3.5146   155.7     6.8  20.8

(MPEC 2026-L104、CBET 5705)

フラット表示 前のトピック | 次のトピック

題名 投稿者 日時
 » Comet C/2026 L2 (PANSTARRS) 佐藤裕久 2026-6-19 23:33

投稿するにはまず登録を
 
© 1999 Tsutomu Seki.